Regional Weather Roundup
Issued by NWS Sterling, VA

Home | Current Version | Previous Version | Graphics & Text | Print | Product List | Glossary On
Versions: 1 2 3 4 5 6 7 8 9 10 11 12 13 14 15 16 17 18 19 20 21 22 23 24 25 26 27 28
000
ASUS41 KLWX 242210
RWRLWX

REGIONAL WEATHER ROUNDUP
NATIONAL WEATHER SERVICE BALTIMORE MD/WASHINGTON DC
600 PM EDT FRI OCT 24 2014

Note: "FAIR" indicates few or no clouds below 12,000 feet
with no significant weather and/or obstructions to visibility.
 TC=TEMPERATURE CELSIUS

 * =Non NWS site. Station does not report precipitation (e.g. rain,
    snow, etc.), thunder, or fog.

DCZ001-MDZ009-015-VAZ040>042-051-053>054-242300-
WASHINGTON METRO

CITY           SKY/WX    TMP DP  RH WIND       PRES   REMARKS
WASHINGTON NAT MOCLDY    68  36  30 NW9       29.91R
DULLES         MOCLDY    62  39  42 W7        29.92R
ANDREWS AFB    PTCLDY    64  37  36 W8        29.90R
FT BELVOIR     PTCLDY    64  42  44 NW7       29.92R
QUANTICO       CLEAR     61  45  55 NW5       29.93R
COLLEGE PARK*  PTCLDY    64  34  32 W3        29.90R
LEESBURG*      MOCLDY    63  43  48 NW8       29.93S
MANASSAS*      PTCLDY    64  37  36 NW7       29.93R
GAITHERSBURG*  MOCLDY    61  36  39 NW7       29.94R

$$

MDZ006>007-011-014-242300-
BALTIMORE METRO

CITY           SKY/WX    TMP DP  RH WIND       PRES   REMARKS
BWI AIRPORT    MOCLDY    64  36  35 W9G17     29.88R
MD SCIENCE CTR   N/A     66  34  30 MISG      29.88R
MARTIN STATE   PTCLDY    66  39  37 W8        29.88R
ANNAPOLIS      PTCLDY    64  39  39 W6        29.88R
FORT MEADE*    MOCLDY    59  41  51 W6        29.92R

$$

MDZ012-015-019>023-242300-
MARYLAND EASTERN SHORE

CITY           SKY/WX    TMP DP  RH WIND       PRES   REMARKS
OCEAN CITY     CLEAR     62  47  57 W6        29.87R
SALISBURY      CLEAR     64  44  48 W8        29.87R
BAY BRIDGE AP*   N/A     63  39  42 W5        29.88R
CAMBRIDGE*     CLEAR     61  45  55 W5        29.88R
EASTON*        CLEAR     64  46  52 NW6       29.91

$$

MDZ017>025-242300-
SOUTHERN MARYLAND

CITY           SKY/WX    TMP DP  RH WIND       PRES   REMARKS
PATUXENT RIVER MOCLDY    62  42  47 W9        29.89S
ST INIGOES     PTCLDY    64  42  44 W12       29.89S
LEONARDTOWN*   PTCLDY    61  41  48 W7        29.92R

$$

MDZ003>005-242300-
NORTH CENTRAL MARYLAND

CITY           SKY/WX    TMP DP  RH WIND       PRES   REMARKS
FREDERICK*     CLEAR     70  27  19 NW10      29.93
HAGERSTOWN APT CLOUDY    59  35  40 W12       29.93R
WESTMINSTER*   MOCLDY    63  30  29 NW7       29.90R

$$

MDZ501>502-242300-
WESTERN MARYLAND

CITY           SKY/WX    TMP DP  RH WIND       PRES   REMARKS
OAKLAND*       PTCLDY    48  34  57 W6        30.01S
CUMBERLAND*    PTCLDY    61  34  36 W8        30.01S

$$

VAZ025>031-242300-
SHENANDOAH VALLEY

CITY           SKY/WX    TMP DP  RH WIND       PRES   REMARKS
WINCHESTER*    CLOUDY    63  30  29 NW9       29.95R
FRONT ROYAL*   FAIR      63  34  34 CALM      29.93S
LURAY*         FAIR      64  36  34 W5        29.95R
NEW MARKET*    FAIR      61  37  40 N3        29.95R
STAUNTON*      PTCLDY    66  38  35 CALM      29.96S
WAYNESBORO*    FAIR      62  39  42 SW3       29.95S

$$

WVZ021-048>050-054>055-242300-
EASTERN WEST VIRGINIA PANHANDLE

CITY           SKY/WX    TMP DP  RH WIND       PRES   REMARKS
MARTINSBURG    CLOUDY    62  30  29 W8        29.95R
PETERSBURG*    CLEAR     61  31  32 NW9       29.99R

$$

VAZ036>039-050-242300-
CENTRAL FOOTHILLS

CITY           SKY/WX    TMP DP  RH WIND       PRES   REMARKS
CHARLOTTESVILL MOCLDY    66  38  35 NW3       29.93S
CULPEPER*      MOCLDY    66  37  34 CALM      29.94R
ORANGE*        PTCLDY    64  41  42 SW3       29.95R
GORDONSVILLE*  FAIR      62  45  54 CALM      29.93R
WARRENTON*     FAIR      65  49  56 NW3       29.92S

$$

VAZ055>057-242300-
NORTH AND CENTRAL PIEDMONT

CITY           SKY/WX    TMP DP  RH WIND       PRES   REMARKS
FREDERICKSBRG* PTCLDY    64  47  54 W6        29.92R
STAFFORD*      PTCLDY    60  43  52 CALM      29.96S

$$

NCZ024-NYZ072-PAZ021-071-VAZ022-071-242300-
OTHER REGIONAL OBSERVATIONS

CITY           SKY/WX    TMP DP  RH WIND       PRES   REMARKS
NEW YORK CITY  CLEAR     58  45  62 E3        29.79S
PHILADELPHIA   MOCLDY    67  43  41 W10       29.82R
PITTSBURGH     PTCLDY    59  35  40 W7        29.99F
ROANOKE        MOCLDY    67  38  34 NW10      29.98S
RICHMOND       MOCLDY    66  39  37 NW3       29.93S
RALEIGH        MOCLDY    62  48  60 W3        29.97R

$$

ANZ530>537-242300-
MARINE OBSERVATIONS

STATION/POSITION TIME  TEMP    WIND        PRES
                       AIR SEA DIR/SP/G
                 (UTC) (F)     (DEG/KT/KT) (MB)
THOMAS PT LIGHT  2200   65 62  290/ 13/ 14 1012.9R
BALT KEY BRIDGE  2200   66     280/ 12/ 15 1011.3R
COVE POINT       2200   64     310/  7/  9 1012.0R
LEWISETTA        2200   64 60  280/  8/ 12 1012.2F
SOLOMONS ISLAND  2200      64                N/A
PINEY POINT      2200          310/ 15/ 16   N/A

$$




USA.gov is the U.S. government's official web portal to all federal, state and local government web resources and services.